Weather in Charleville-Mezieres

France     49°45′23″N   4°42′28″E
temp.,
°C
wind,
m/s
gust,
m/s
humid.,
%
clouds,
%
prec.,
mm/h
press.,
hPa
HPBL,
m
11 april, sun
sun1123:00+9ssw51098100 3.3 1008547
02:00+8sw3799100 4.1 1008441
05:00+8w2499100 0.8 1008291
08:00+4nne4797100 0.9 1009348
11:00+2nne61297100 3.7 1011451
14:00+3n51196100 6.1 1014676
17:00+5n6983100 0.2 10161015
20:00+3nnw3680100 0.3 1018211
12 april, mon
mon1223:000nnw238379 0.0 102369
02:00−2nnw119074 0.0 102512
05:00−2nw11915 0.0 102610
08:000wsw11845 0.0 102859
11:00+5w45646 0.0 10281076
14:00+8wnw6843100 0.3 10282493
17:00+8nw6941100 0.0 10282305
20:00+4nnw236018 0.0 102934
13 april, tue
tue1323:00−1nne22800 0.0 103114
02:00−2nne22850 0.0 103224
05:00−3nne22845 0.0 103320
08:00−1nne23731 0.0 103490
11:00+6ne34545 0.0 10341254
14:00+9ne3438100 0.0 10322440
17:00+9nne4337100 0.0 10312216
20:00+5nne34589 0.0 103271
14 april, wed
wed1423:000nne22691 0.0 103320
02:00−1nne22735 0.0 103318
05:00−1ne22730 0.0 103216
08:00+1nne23665 0.0 103289
11:00+7ne334692 0.0 10311921
14:00+9nne3438100 0.0 10302445
17:00+9nne554095 0.0 10282062
20:00+5nne47601 0.0 1029165
15 april, thu
thu1523:000n33875 0.0 103040
02:00−1nne37935 0.0 1030119
05:00−2nne37958 0.0 1030116
08:000nne39918 0.0 1030220
11:00+6ne56575 0.0 10291283
14:00+8ne445287 0.5 10281644
17:00+8ne566187 1.3 10271397
20:00+5ne497568 1.9 1027251